Location: Góry Miechowskie
(50.3599°N, 20.1803°E)
Time: 23:06:03
(UTC+00:00)

Cosmos 1869 - Pass Details

Date: 19 September 2024
Orbit: 484 x 518 km, 82.5° (Epoch: 06 October)

Event Time Altitude Azimuth Distance (km) Brightness Sun altitude
Exits shadow 23:58:03 11° 32° (NNE) 1,670 6.5 -35.5°
Drops below altitude 10° 23:58:13 10° 31° (NNE) 1,726 6.6 -35.5°
Sets 00:00:31 0° 20° (NNE) 2,609 7.8 -35.3°
